Regional Weather Roundup
Issued by NWS

Home | Current Version | Previous Version | Graphics & Text | Print | Product List | Glossary Off
Versions: 1 2 3 4 5 6 7 8 9 10 11 12 13 14 15 16 17 18 19 20 21 22 23 24 25 26 27 28 29 30 31 32 33 34 35 36 37 38 39 40 41 42 43 44 45 46 47 48 49 50

000
ASUS43 KDMX 182306
RWRIA

WEATHER ROUNDUP FOR IOWA
NATIONAL WEATHER SERVICE DES MOINES IA
500 PM CST SAT NOV 18 2017

NOTE: "FAIR" INDICATES FEW OR NO CLOUDS BELOW 12,000 FEET WITH NO
SIGNIFICANT WEATHER AND/OR OBSTRUCTIONS TO VISIBILITY.

* - THESE STATIONS ARE NOT NWS STATIONS...THUS NOT UNDER NWS
QUALITY CONTROL.  THEY ALSO DO NOT REPORT WEATHER SUCH
AS PRECIPITATION OR FOG.

IAZ001>003-012>014-020>022-031>034-043>046-190000-
   NORTHWEST IOWA

CITY           SKY/WX    TMP DP  RH WIND       PRES   REMARKS
CARROLL *      CLEAR     36  25  64 NW17      30.01R WCI  25
CHEROKEE *     CLEAR     34  20  57 NW12      30.04R WCI  25
DENISON *      CLEAR     36  23  60 NW14G22   30.06R WCI  27
LE MARS *      CLEAR     34  19  55 NW14G21   30.07R WCI  24
ORANGE CITY *  CLEAR     34  21  60 NW18G25   30.05R WCI  23
SHELDON *      CLEAR     32  16  51 NW17G26   30.02R WCI  21
SIOUX CITY     CLEAR     35  20  54 NW20      30.08R WCI  24
SPENCER        CLEAR     33  17  51 NW20G28   30.01R WCI  21
STORM LAKE *   CLEAR     34  21  60 NW17G24   30.01R WCI  23
$$

IAZ055>058-069>071-079>083-090>094-190000-
   SOUTHWEST IOWA

CITY           SKY/WX    TMP DP  RH WIND       PRES   REMARKS
ATLANTIC *     CLEAR     39  28  65 NW17G24   30.04R WCI  30
AUDUBON *      CLEAR     37  27  65 NW12G23   30.03R WCI  30
CLARINDA *     CLEAR     43  30  61 NW22G30     N/A
COUNCIL BLFS * CLEAR     39  27  60 NW17G25   30.07R WCI  30
CRESTON *      CLEAR     39  27  60 NW15G25   30.01R WCI  31
HARLAN  *      CLEAR     37  27  65 NW18      30.08R WCI  27
LAMONI         PTCLDY    42  27  55 NW26G33   29.97R
RED OAK *      CLEAR     41  28  60 NW14G26   30.06R
SHENANDOAH *   CLEAR     43  27  52 NW17G23   30.08R
$$

IAZ047>049-059>061-072>074-084-190000-
   CENTRAL IOWA

CITY           SKY/WX    TMP DP  RH WIND       PRES   REMARKS
AMES           CLEAR     36  26  67 NW20G28   29.97R WCI  25
ANKENY *       CLEAR     39  27  60 NW18G25   29.97R WCI  30
BOONE *        CLEAR     36  25  64 NW18G35   29.96R WCI  25
CHARITON *     MOCLDY    41  30  65 NW18G25   29.95R
DES MOINES     PTCLDY    39  26  59 NW14G22   29.96R WCI  31
GRINNELL*      CLEAR     36  28  75 NW23G29   29.92R WCI  24
KNOXVILLE *    CLOUDY    41  28  60 NW18G31   29.93R
MARSHALLTOWN   CLEAR     34  25  69 NW24G35   29.92R WCI  21
NEWTON *       PTCLDY    37  28  70 NW23      29.94R WCI  26
PELLA *        CLEAR     38  28  67 NW20G31   29.95R WCI  28
PERRY *        MOCLDY    38  27  65 NW15      29.99R WCI  29
$$

IAZ004>006-015-016-023>025-035-036-190000-
   NORTH CENTRAL IOWA

CITY           SKY/WX    TMP DP  RH WIND       PRES   REMARKS
ALGONA *       CLEAR     32  21  64 NW18G25   29.98R WCI  20
CLARION *      CLEAR     32  25  74 NW14G24   29.97R WCI  22
ESTHERVILLE    CLEAR     30  19  63 NW14      29.99R WCI  19
FORT DODGE *   CLEAR     33  21  61 NW12G18   29.99R WCI  24
MASON CITY     CLEAR     30  20  66 NW20G30   29.94R WCI  17
FOREST CITY *    N/A     32  23  69 NW14G20   29.95R WCI  22
WEBSTER CITY * CLEAR     32  25  74 NW17G24   29.96R WCI  21
IOWA FALLS *   CLOUDY    34  25  70 NW28G33   29.94R WCI  21
$$

IAZ007>011-017>019-026>030-037>042-050>054-066-190000-
   NORTHEAST IOWA

CITY           SKY/WX    TMP DP  RH WIND       PRES   REMARKS
CEDAR RAPIDS   CLEAR     38  30  73 NW24G37   29.83R WCI  27
CHARLES CITY * CLOUDY    34  25  69 NW23G32   29.89R WCI  22
CLINTON *      PTCLDY    37  33  85 NW14      29.76R WCI  28
DECORAH *      CLEAR     36  27  69 NW12G24   29.81R WCI  27
DUBUQUE        CLEAR     39  29  67 NW15      29.75R WCI  31
MONTICELLO *   CLEAR     39  30  70 NW18G26   29.79R WCI  30
OELWEIN *      CLEAR     36  30  80 NW30      29.84R WCI  22
WATERLOO       PTCLDY    34  24  67 NW24G33   29.88R WCI  21
$$

IAZ064-065-067-068-078-190000-
   EAST CENTRAL IOWA

CITY           SKY/WX    TMP DP  RH WIND       PRES   REMARKS
DAVENPORT      CLOUDY    39  33  79 NW16G22   29.79R WCI  30
IOWA CITY      CLEAR     42  30  62 NW13G22   29.85R
MT. PLEASANT * CLEAR     41  30  64 NW14G25   29.85R
MUSCATINE *    CLEAR     41  32  70 NW15      29.83R
QUAD CITIES    MOCLDY    42  33  70 NW15      29.77R
$$

IAZ062-063-075>077-085>089-095>099-190000-
   SOUTHEAST IOWA

CITY           SKY/WX    TMP DP  RH WIND       PRES   REMARKS
BURLINGTON     PTCLDY    42  33  70 NW17G28   29.82R
FAIRFIELD *    CLEAR     41  30  65 NW21G29   29.87R
FORT MADISON * PTCLDY    41  34  75 NW15G21   29.84R
KEOKUK *       PTCLDY    43  32  65 NW14G21   29.84R
OSKALOOSA *      N/A     38  30  71 NW22G31   29.92R WCI  28
OTTUMWA        CLEAR     40  29  64 NW24G35   29.90R WCI  29
WASHINGTON *   CLEAR     41  30  65 NW24      29.86R
$$

ABBREVIATIONS USED IN REMARKS
   TC - TEMPERATURES IN CELSIUS
  WCI - WIND CHILL INDEX
   HX - HEAT INDEX
  VSB - VISIBILITY
$$




USA.gov is the U.S. government's official web portal to all federal, state and local government web resources and services.